This demonstration page uses our WeatherBlox Daily Observations layout. Learn more.

Left ArrowRight Arrow

34.74481, -87.66753

Hourly Observations for January 13, 2020

Temp ( °F °C ) Dew Point ( °F °C ) Humidity (%) Winds ( mph kmh ) Pressure ( in mb ) Visibility ( mi km ) Precip ( " mm )
12:08 am 00:08 Mostly Cloudy with Mist and Fog 44 6.7 42 5.6 93 93 Calm 30.30 1026 3 5 0.00 0.00
12:53 am 00:53 Clear with Mist and Fog 42 5.6 40 4.4 92 92 SSE 3 6 30.27 1025 6 10 0.00 0.00
1:13 am 01:13 Clear with Mist and Fog 43 6.1 41 5 93 93 Calm 30.30 1026 2 3 0.00 0.00
1:20 am 01:20 Mostly Cloudy with Mist and Fog 42 5.6 41 5 96 96 Calm 30.31 1026 1 1 0.00 0.00
1:32 am 01:32 Mostly Cloudy with Fog 42 5.6 40 4.4 92 92 Calm 30.31 1026 1 1 0.00 0.00
1:53 am 01:53 Mostly Cloudy with Mist and Fog 43 6.1 41 5 93 93 Calm 30.28 1026 1 2 0.00 0.00
2:09 am 02:09 Partly Cloudy with Mist and Fog 43 6.1 41 5 93 93 Calm 30.31 1026 2 3 0.00 0.00
2:19 am 02:19 Partly Cloudy with Mist and Fog 43 6.1 41 5 93 93 Calm 30.30 1026 4 6 0.00 0.00
2:23 am 02:23 Mostly Cloudy with Mist and Fog 43 6.1 41 5 93 93 Calm 30.30 1026 2 3 0.00 0.00
2:35 am 02:35 Mostly Cloudy with Fog 43 6.1 41 5 93 93 Calm 30.30 1026 1 1 0.00 0.00
2:44 am 02:44 Mostly Cloudy with Fog 43 6.1 41 5 93 93 Calm 30.30 1026 0 0 0.00 0.00
2:53 am 02:53 Mostly Cloudy with Fog 42 5.6 41 5 96 96 SE 3 6 30.27 1025 0 0 0.00 0.00
3:01 am 03:01 Mostly Cloudy with Fog 43 6.1 41 5 93 93 Calm 30.30 1026 1 1 0.00 0.00
3:23 am 03:23 Mostly Cloudy with Mist and Fog 43 6.1 41 5 93 93 Calm 30.30 1026 2 2 0.00 0.00
3:31 am 03:31 Mostly Cloudy with Fog 43 6.1 41 5 93 93 Calm 30.29 1026 0 0 0.00 0.00
3:53 am 03:53 Mostly Cloudy with Fog 43 6.1 42 5.6 97 97 Calm 30.27 1025 1 1 0.00 0.00
4:53 am 04:53 Mostly Cloudy with Fog 44 6.7 42 5.6 93 93 Calm 30.31 1026 1 1 0.00 0.00
5:01 am 05:01 Mostly Cloudy with Fog 44 6.7 42 5.6 93 93 Calm 30.33 1027 0 0 0.00 0.00
5:33 am 05:33 Mostly Cloudy with Fog 44 6.7 42 5.6 93 93 Calm 30.33 1027 0 0 0.00 0.00
5:43 am 05:43 Mostly Cloudy with Fog 44 6.7 42 5.6 93 93 Calm 30.34 1027 1 1 0.00 0.00
5:53 am 05:53 Mostly Cloudy with Fog 44 6.7 42 5.6 93 93 NNE 3 6 30.31 1026 1 1 0.00 0.00
6:35 am 06:35 Mostly Cloudy with Fog 42 5.6 41 5 96 96 SSE 6 9 30.34 1027 0 0 0.00 0.00
6:42 am 06:42 Mostly Cloudy with Fog 43 6.1 41 5 93 93 SSE 5 7 30.34 1027 1 1 0.00 0.00
6:53 am 06:53 Mostly Cloudy with Fog 43 6.1 41 5 93 93 SSE 6 9 30.33 1027 1 1 0.00 0.00
7:14 am 07:14 Mostly Cloudy with Fog 44 6.7 42 5.6 93 93 SE 3 6 30.35 1028 0 0 0.00 0.00
7:53 am 07:53 Mostly Cloudy with Fog 44 6.7 42 5.6 93 93 Calm 30.34 1027 0 0 0.00 0.00
8:28 am 08:28 Cloudy with Fog 45 7.2 43 6.1 93 93 NE 5 7 30.36 1028 1 1 0.00 0.00
8:36 am 08:36 Cloudy with Fog 45 7.2 43 6.1 93 93 ENE 3 6 30.36 1028 0 0 0.00 0.00
8:53 am 08:53 Cloudy with Fog 46 7.8 44 6.7 93 93 Calm 30.35 1028 1 1 0.00 0.00
9:46 am 09:46 Cloudy with Mist and Fog 48 8.9 46 7.8 93 93 ESE 3 6 30.38 1029 3 4 0.00 0.00
9:53 am 09:53 Cloudy with Mist and Fog 48 8.9 46 7.8 93 93 SSE 3 6 30.37 1029 4 6 0.00 0.00
10:53 am 10:53 Mostly Sunny 51 10.6 49 9.4 92 92 Calm 30.34 1027 10 16 0.00 0.00
11:53 am 11:53 Sunny 58 14.4 49 9.4 72 72 NE 3 6 30.29 1026 10 16 0.00 0.00
12:53 pm 12:53 Mostly Cloudy 60 15.6 48 8.9 65 65 ESE 5 7 30.27 1025 10 16 0.00 0.00
1:53 pm 13:53 Partly Cloudy 61 16.1 50 10 67 67 ESE 5 7 30.25 1024 10 16 0.00 0.00
2:53 pm 14:53 Cloudy 61 16.1 51 10.6 70 70 E 5 7 30.24 1024 10 16 0.00 0.00
3:53 pm 15:53 Cloudy 61 16.1 52 11.1 72 72 E 5 7 30.25 1024 10 16 0.00 0.00
4:37 pm 16:37 Cloudy 60 15.6 52 11.1 75 75 ESE 5 7 30.26 1025 10 16 0.00 0.00
4:53 pm 16:53 Cloudy 60 15.6 52 11.1 75 75 E 5 7 30.25 1024 10 16 0.00 0.00
5:53 pm 17:53 Cloudy 59 15 52 11.1 78 78 E 6 9 30.25 1024 10 16 0.00 0.00
6:53 pm 18:53 Cloudy 59 15 52 11.1 78 78 Calm 30.24 1024 10 16 0.00 0.00
7:13 pm 19:13 Cloudy with Thunderstorms 59 15 53 11.7 81 81 Calm 30.27 1025 9 14 0.00 0.00
7:30 pm 19:30 Cloudy with Strong Thunderstorms 58 14.4 54 12.2 87 87 SSE 20 31 30.24 1024 2 3 0.01 0.25
7:37 pm 19:37 Cloudy with Heavy Rain 57 13.9 54 12.2 90 90 SE 15 24 30.22 1023 2 3 0.02 0.51
7:43 pm 19:43 Cloudy with Rain 57 13.9 54 12.2 90 90 ESE 16 26 30.18 1022 6 10 0.02 0.51
7:53 pm 19:53 Cloudy with Light Rain 58 14.4 55 12.8 90 90 SSE 22 35 30.18 1022 9 14 0.03 0.76
8:27 pm 20:27 Mostly Cloudy 59 15 56 13.3 90 90 WNW 8 13 30.23 1024 10 16 0.03 0.76
8:36 pm 20:36 Mostly Cloudy 59 15 56 13.3 90 90 W 3 6 30.22 1023 10 16 0.04 1.02
8:49 pm 20:49 Cloudy 59 15 55 13 88 88 Calm 30.22 1023 10 16 0.05 1.27
8:53 pm 20:53 Cloudy 59 15 55 12.8 87 87 Calm 30.21 1023 10 16 0.05 1.27
9:02 pm 21:02 Mostly Cloudy 58 14.4 55 12.8 90 90 Calm 30.21 1023 10 16 0.01 0.25
9:53 pm 21:53 Partly Cloudy with Mist and Fog 58 14.4 55 12.8 90 90 ESE 3 6 30.20 1023 6 10 0.01 0.25
10:53 pm 22:53 Cloudy 58 14.4 56 13.3 93 93 S 6 9 30.19 1022 7 11 0.00 0.00
11:53 pm 23:53 Cloudy 63 17.2 60 15.6 90 90 SSW 7 11 30.18 1022 10 16 0.00 0.00

Powered by AerisWeather